{"data":{"norad_id":55833,"epoch":"2026-09-20T00:32:09.394080Z","epoch_age_seconds":63145,"freshness":"FRESH","line1":"1 55833U 23029AP  26263.02233095  .00000221  00000+0  56033-3 0  9997","line2":"2 55833  87.8897 270.7974 0002345  89.9726 270.1673 13.14501440171877","mean_motion":13.1450144,"eccentricity":0.0002345,"inclination_deg":87.8897,"raan_deg":270.7974,"arg_perigee_deg":89.9726,"mean_anomaly_deg":270.1673,"bstar":0.00056033,"rev_number":17187,"period_min":109.54723640318,"perigee_km":1204.0171534038,"apogee_km":1207.5740177865,"semimajor_km":7583.9325855952,"source":"CELESTRAK","updated_at":"2026-09-20T09:00:44.785425Z"}}